Waarnemingen

Advertentie
Mijn weer
Vitoria, Spanje (8080): temperatuur & dauwpunt: 11.02.2018 20:00:00 - 17.02.2018 20:00:00 (CET)Vitoria, Spanje (8080): windsnelheid: 11.02.2018 20:00:00 - 17.02.2018 20:00:00 (CET)Vitoria, Spanje (8080): windrichting: 11.02.2018 20:00:00 - 17.02.2018 20:00:00 (CET)Vitoria, Spanje (8080): luchtdruk: 11.02.2018 20:00:00 - 17.02.2018 20:00:00 (CET)Vitoria, Spanje (8080): zicht: 11.02.2018 20:00:00 - 17.02.2018 20:00:00 (CET)
Datum & Tijd tt [°C] td [°C] ff [km/u] ff [kn] dd ppp [hPa] vv [km]
17.02.2018 20:00:00 4,4 2,8 9 5 W 1029,4 -
17.02.2018 19:00:00 5,5 2,5 11 6 NW 1029,0 20
17.02.2018 18:00:00 7,5 2,5 18 10 NNW 1027,9 -
17.02.2018 17:00:00 9,0 4,3 16 9 NNW 1027,4 -
17.02.2018 16:00:00 9,0 2,9 26 14 N 1027,0 15
17.02.2018 15:00:00 7,3 3,8 22 12 NNW 1027,6 -
17.02.2018 14:00:00 8,9 3,7 9 5 N 1027,3 15
17.02.2018 13:00:00 7,9 5,2 9 5 N 1028,1 12
17.02.2018 12:00:00 8,7 5,1 11 6 N 1027,5 -
17.02.2018 11:00:00 7,5 5,3 16 9 NNW 1027,8 -
17.02.2018 10:00:00 6,4 5,2 4 2 OZO 1027,3 8
17.02.2018 09:00:00 6,4 4,9 9 5 NNW 1027,0 -
17.02.2018 08:00:00 6,4 5,3 8 4 O 1026,3 -
17.02.2018 07:00:00 6,9 4,6 16 9 NW 1025,7 12
17.02.2018 06:00:00 7,4 5,3 9 5 NW 1025,1 -
17.02.2018 05:00:00 8,7 6,6 15 8 NW 1024,0 -
17.02.2018 04:00:00 9,8 7,2 11 6 N 1023,1 15
17.02.2018 03:00:00 10,5 8,3 15 8 NNW 1022,6 -
17.02.2018 02:00:00 11,2 8,6 13 7 WNW 1021,7 -
17.02.2018 01:00:00 10,4 8,2 2 1 O 1021,6 15
17.02.2018 00:00:00 10,7 8,6 8 4 N 1021,3 -
16.02.2018 23:00:00 10,6 8,6 0 0 N 1021,2 -
16.02.2018 22:00:00 10,8 8,7 9 5 ZZW 1020,9 15
16.02.2018 21:00:00 10,7 8,5 0 0 N 1020,8 -
16.02.2018 20:00:00 12,5 9,0 5 3 ZZW 1020,5 -
16.02.2018 19:00:00 14,0 9,3 9 5 WZW 1020,1 20
16.02.2018 18:00:00 15,0 9,5 13 7 ZZW 1019,8 -
16.02.2018 17:00:00 16,0 9,5 22 12 WZW 1019,6 -
16.02.2018 16:00:00 16,3 9,8 16 9 ZZW 1019,7 25
16.02.2018 15:00:00 16,6 10,2 21 11 ZZW 1020,0 -
16.02.2018 14:00:00 16,2 10,1 24 13 ZZW 1021,0 25
16.02.2018 13:00:00 14,8 9,8 18 10 ZZW 1022,2 25
16.02.2018 12:00:00 15,4 10,4 18 10 ZZW 1022,6 -
16.02.2018 11:00:00 13,4 10,4 16 9 ZW 1023,3 -
16.02.2018 10:00:00 11,0 9,7 0 0 N 1023,8 20
16.02.2018 09:00:00 8,9 8,1 2 1 ONO 1024,1 -
16.02.2018 08:00:00 9,7 8,9 5 3 WZW 1023,7 20
16.02.2018 07:00:00 9,2 7,8 4 2 ZW 1023,7 20
16.02.2018 06:00:00 10,7 8,6 8 4 ZZW 1023,4 -
16.02.2018 05:00:00 11,1 9,0 5 3 ZW 1023,3 -
16.02.2018 04:00:00 10,9 9,0 8 4 ZZW 1023,8 20
16.02.2018 03:00:00 9,9 8,4 0 0 N 1024,2 -
16.02.2018 02:00:00 11,9 9,3 13 7 ZW 1023,8 -
16.02.2018 01:00:00 11,7 9,3 8 4 ZW 1023,8 20
16.02.2018 00:00:00 12,3 9,3 8 4 Z 1023,9 -
15.02.2018 23:00:00 13,4 9,6 9 5 Z 1023,5 -
15.02.2018 22:00:00 12,4 9,5 0 0 N 1023,7 20
15.02.2018 21:00:00 12,6 9,4 8 4 WZW 1023,2 -
15.02.2018 20:00:00 13,1 9,3 16 9 WZW 1023,0 -
15.02.2018 19:00:00 12,9 9,3 15 8 ZZW 1022,6 20
15.02.2018 18:00:00 13,6 9,2 24 13 ZW 1022,3 -
15.02.2018 17:00:00 13,8 9,2 16 9 WZW 1022,1 -
15.02.2018 16:00:00 13,9 9,3 8 4 ZW 1021,9 25
15.02.2018 15:00:00 13,7 9,7 22 12 ZW 1022,1 -
15.02.2018 14:00:00 14,3 10,6 26 14 ZW 1022,1 20
15.02.2018 13:00:00 13,0 9,3 31 17 ZW 1022,5 20
15.02.2018 12:00:00 12,9 9,3 29 16 ZZW 1022,4 -
15.02.2018 11:00:00 12,5 9,0 31 17 ZZW 1022,1 -
15.02.2018 10:00:00 12,4 8,8 26 14 ZZW 1021,7 20
15.02.2018 09:00:00 10,5 7,7 22 12 ZW 1021,7 -
15.02.2018 08:00:00 10,4 7,6 29 16 ZW 1020,8 20
15.02.2018 07:00:00 10,1 7,8 13 7 W 1020,8 15
15.02.2018 06:00:00 10,2 8,1 34 18 ZW 1020,3 -
15.02.2018 05:00:00 9,9 7,8 15 8 ZZW 1020,1 -
15.02.2018 04:00:00 9,8 7,7 15 8 ZW 1019,9 15
15.02.2018 03:00:00 10,6 8,0 11 6 Z 1019,6 -
15.02.2018 02:00:00 10,4 7,8 13 7 ZZW 1019,1 -
15.02.2018 01:00:00 10,8 8,1 16 9 ZZW 1018,9 15
15.02.2018 00:00:00 10,3 7,7 16 9 ZW 1018,7 -
14.02.2018 23:00:00 10,3 7,7 22 12 ZW 1018,5 -
14.02.2018 22:00:00 10,9 7,9 22 12 ZW 1018,0 15
14.02.2018 21:00:00 10,7 7,9 24 13 ZZW 1017,4 -
14.02.2018 20:00:00 10,4 7,6 18 10 ZW 1017,1 -
14.02.2018 19:00:00 10,7 7,8 16 9 ZW 1016,6 20
14.02.2018 18:00:00 11,0 7,9 24 13 ZW 1016,0 -
14.02.2018 17:00:00 11,3 8,1 26 14 ZW 1015,4 -
14.02.2018 16:00:00 11,4 7,9 18 10 WZW 1015,1 20
14.02.2018 15:00:00 10,9 7,7 21 11 WZW 1015,0 -
14.02.2018 14:00:00 10,1 7,6 22 12 WZW 1014,9 10
14.02.2018 13:00:00 9,8 7,5 16 9 WZW 1015,4 10
14.02.2018 12:00:00 9,1 6,7 22 12 ZW 1015,6 -
14.02.2018 11:00:00 8,8 6,2 28 15 ZW 1015,3 -
14.02.2018 10:00:00 8,0 5,8 22 12 ZW 1015,3 15
14.02.2018 09:00:00 6,7 5,8 18 10 ZW 1015,4 -
14.02.2018 08:00:00 3,9 3,5 8 4 NNO 1016,0 10
14.02.2018 07:00:00 3,6 3,2 8 4 ONO 1016,0 15
14.02.2018 06:00:00 3,5 3,1 8 4 ONO 1016,0 -
14.02.2018 05:00:00 3,5 2,9 4 2 N 1016,5 -
14.02.2018 04:00:00 3,5 2,8 8 4 NO 1016,7 15
14.02.2018 03:00:00 3,6 3,0 0 0 N 1016,9 -
14.02.2018 02:00:00 3,2 2,8 8 4 NO 1017,2 -
14.02.2018 01:00:00 3,1 2,5 4 2 NNO 1017,8 15
14.02.2018 00:00:00 3,0 2,3 0 0 N 1018,0 -
13.02.2018 23:00:00 3,2 2,3 2 1 O 1018,1 -
13.02.2018 22:00:00 3,1 2,2 9 5 NNO 1017,9 15
13.02.2018 21:00:00 4,4 1,9 8 4 WZW 1017,7 -
13.02.2018 20:00:00 4,9 2,1 9 5 WZW 1017,3 -
13.02.2018 19:00:00 - - - - - - -
13.02.2018 18:00:00 6,2 2,5 5 3 W 1015,7 -
13.02.2018 17:00:00 6,6 2,6 11 6 W 1015,5 -
13.02.2018 16:00:00 6,6 1,9 26 14 W 1014,6 15
13.02.2018 15:00:00 6,1 1,7 26 14 WZW 1014,7 -
13.02.2018 14:00:00 5,3 1,1 22 12 WZW 1015,6 15
13.02.2018 13:00:00 4,1 0,3 18 10 ZW 1016,2 10
13.02.2018 12:00:00 3,3 -0,2 24 13 ZW 1016,9 -
13.02.2018 11:00:00 2,2 -0,9 18 10 ZW 1016,7 -
13.02.2018 10:00:00 2,0 -1,8 22 12 WZW 1016,1 20
13.02.2018 09:00:00 1,7 -1,2 22 12 ZW 1016,9 -
13.02.2018 08:00:00 1,2 -2,7 22 12 ZZW 1017,5 12
13.02.2018 07:00:00 0,0 -3,1 15 8 ZW 1018,3 10
13.02.2018 06:00:00 -2,0 -3,2 5 3 WNW 1019,1 -
13.02.2018 05:00:00 -3,7 -4,0 2 1 ZO 1020,2 -
13.02.2018 04:00:00 -3,4 -3,8 0 0 N 1021,3 0,5
13.02.2018 03:00:00 -3,0 -3,4 4 2 ONO 1022,2 -
13.02.2018 02:00:00 -2,9 -3,3 5 3 NO 1023,1 -
13.02.2018 01:00:00 -3,0 -3,6 5 3 NNO 1023,8 10
13.02.2018 00:00:00 -1,6 -2,0 4 2 ZO 1024,3 -
12.02.2018 23:00:00 -1,6 -2,2 4 2 ZW 1024,7 -
12.02.2018 22:00:00 -0,7 -1,4 5 3 W 1024,3 10
12.02.2018 21:00:00 -0,3 -1,3 5 3 Z 1024,1 -
12.02.2018 20:00:00 0,1 -0,8 8 4 WZW 1024,6 -
12.02.2018 19:00:00 1,1 -0,2 0 0 N 1024,3 15
12.02.2018 18:00:00 2,0 0,4 5 3 WNW 1023,9 -
12.02.2018 17:00:00 2,6 0,7 8 4 NO 1023,7 -
12.02.2018 16:00:00 1,4 0,4 9 5 N 1024,0 4,5
12.02.2018 15:00:00 2,6 1,9 8 4 ONO 1023,5 -
12.02.2018 14:00:00 2,6 2,0 15 8 ONO 1023,8 7
12.02.2018 13:00:00 3,8 1,6 13 7 NNW 1023,7 8
12.02.2018 12:00:00 5,0 1,9 21 11 WNW 1023,5 -
12.02.2018 11:00:00 3,3 0,5 8 4 WNW 1024,0 -
12.02.2018 10:00:00 1,9 0,2 0 0 N 1024,2 15
12.02.2018 09:00:00 1,5 0,6 5 3 ZZW 1024,0 -
12.02.2018 08:00:00 1,3 0,1 2 1 NW 1023,7 15
12.02.2018 07:00:00 1,5 0,5 5 3 N 1023,4 12
12.02.2018 06:00:00 1,4 -0,1 16 9 WNW 1023,3 -
12.02.2018 05:00:00 2,6 1,1 18 10 NW 1023,0 -
12.02.2018 04:00:00 3,0 1,6 8 4 NNW 1023,0 12
12.02.2018 03:00:00 3,6 1,8 13 7 WNW 1022,7 -
12.02.2018 02:00:00 4,1 1,9 15 8 NNW 1022,6 -
12.02.2018 01:00:00 4,7 2,1 8 4 WNW 1022,7 15
12.02.2018 00:00:00 5,1 2,3 9 5 NNW 1022,3 -
11.02.2018 23:00:00 5,7 2,9 4 2 NW 1022,1 -
11.02.2018 22:00:00 5,9 3,3 8 4 NO 1021,7 15
11.02.2018 21:00:00 6,2 3,3 9 5 NO 1021,3 -
11.02.2018 20:00:00 6,6 2,9 8 4 NNO 1020,9 -

tt = temperatuur
td = dauwpunt
ff = windsnelheid
dd = windrichting
ppp = luchtdruk
vv = zicht

Weerstations in de omgeving